[[[{"header":{"parameterUnit":"kt","parameterCategory":2,"dx":1,"dy":1,"la1":30.253999710083008,"la2":30.299108505249023,"lo1":-89.0895004272461,"lo2":-89.04439544677734,"nx":28,"ny":28,"refTime":"2022-10-19T21:00:00:Z","depth":0,"parameterNumber":1,"parameterNumberName":"U-component_of_WINDS"},"data":[-2.3449,-2.3472,-2.3482,-2.3511,-2.3525,-2.3547,-2.3557,-2.3572,-2.3586,-2.3612,-2.3629,-2.364,-2.3657,-2.3678,-2.3696,-2.37,-2.3707,-2.3708,-2.3713,-2.37,-2.3699,-2.3698,-2.3693,-2.3709,-2.3709,-2.3724,-2.3724,-2.3724,-2.3439,-2.3453,-2.3472,-2.3497,-2.3513,-2.3518,-2.3537,-2.355,-2.3569,-2.3586,-2.3603,-2.3627,-2.3646,-2.3663,-2.3683,-2.3692,-2.3695,-2.3697,-2.3696,-2.3698,-2.3686,-2.3681,-2.3694,-2.3694,-2.3694,-2.3694,-2.3694,-2.3694,-2.3423,-2.3436,-2.3457,-2.3478,-2.3493,-2.3509,-2.3523,-2.3537,-2.3555,-2.3578,-2.3585,-2.3606,-2.3625,-2.3653,-2.3665,-2.3681,-2.368,-2.3685,-2.3686,-2.3687,-2.3686,-2.3663,-2.3685,-2.3685,-2.3685,-2.3685,-2.3685,0,-2.3414,-2.3422,-2.344,-2.3462,-2.3478,-2.3495,-2.3512,-2.3521,-2.3539,-2.3553,-2.3574,-2.3587,-2.3613,-2.3633,-2.3654,-2.3665,-2.367,-2.3672,-2.3675,-2.3671,-2.3665,-2.3667,-2.3646,-2.3671,-2.3671,-2.367,-2.367,-2.367,-2.3398,-2.3413,-2.3439,-2.3451,-2.3463,-2.3482,-2.3495,-2.351,-2.3522,-2.3546,-2.3556,-2.3577,-2.3594,-2.3624,-2.3639,-2.3658,-2.3661,-2.3669,-2.3664,-2.366,-2.366,-2.3659,-2.366,-2.3669,-2.367,-2.367,-2.367,0,-2.3388,-2.3404,-2.3429,-2.3454,-2.3461,-2.3475,-2.3495,-2.3509,-2.3521,-2.3541,-2.3546,-2.3564,-2.3584,-2.3598,-2.3623,-2.3629,-2.3651,-2.3653,-2.3645,-2.3645,-2.3654,-2.3652,-2.368,-2.3684,-2.3668,-2.3669,-2.3669,0,-2.338,-2.3398,-2.3421,-2.3435,-2.3456,-2.347,-2.349,-2.3502,-2.3519,-2.3535,-2.3544,-2.3558,-2.3574,-2.359,-2.36,-2.362,-2.3625,-2.3631,-2.3633,-2.3629,-2.3628,-2.3635,-2.3634,-2.3638,-2.3638,-2.3638,-2.3638,0,-2.3361,-2.3396,-2.3419,-2.3429,-2.3456,-2.3467,-2.3478,-2.3497,-2.351,-2.3528,-2.3536,-2.3556,-2.3567,-2.3581,-2.3594,-2.3589,-2.3619,-2.3615,-2.3625,-2.3624,-2.363,-2.3629,-2.3651,-2.3637,-2.3637,-2.3637,-2.3637,0,-2.3357,-2.3377,-2.3408,-2.3431,-2.3439,-2.3454,-2.3475,-2.3491,-2.351,-2.3518,-2.3532,-2.3539,-2.3559,-2.3554,-2.3581,-2.3572,-2.3582,-2.3589,-2.359,-2.3592,-2.3586,-2.3595,-2.3615,-2.3618,-2.3594,-2.3594,-2.3594,0,-2.3331,-2.3367,-2.338,-2.3409,-2.3428,-2.3437,-2.3453,-2.347,-2.3482,-2.3498,-2.351,-2.3529,-2.3528,-2.3536,-2.3548,-2.356,-2.3572,-2.3559,-2.3581,-2.3581,-2.3575,-2.3594,-2.3593,-2.361,-2.3589,-2.359,-2.359,0,-2.3313,-2.3348,-2.3352,-2.3364,-2.3389,-2.3405,-2.3424,-2.3446,-2.3457,-2.3475,-2.3491,-2.3518,-2.3518,-2.3531,-2.3538,-2.355,-2.3564,-2.3548,-2.3549,-2.355,-2.3589,-2.3588,-2.359,-2.3567,-2.3568,-2.3568,-2.3587,0,-2.3301,-2.3322,-2.3334,-2.3361,-2.3375,-2.3395,-2.341,-2.3423,-2.343,-2.3441,-2.3465,-2.3482,-2.3504,-2.3511,-2.3517,-2.3539,-2.3537,-2.3537,-2.3533,-2.3546,-2.3552,-2.3555,-2.3522,-2.3522,-2.3522,-2.3522,0,0,-2.3272,-2.3301,-2.3315,-2.3335,-2.3348,-2.3357,-2.3376,-2.3389,-2.3416,-2.3424,-2.3422,-2.3462,-2.3476,-2.3503,-2.3508,-2.3517,-2.3522,-2.3517,-2.354,-2.3542,-2.3543,-2.355,-2.3553,-2.3522,-2.3522,-2.3522,-2.3522,0,-2.3271,-2.3287,-2.3306,-2.3321,-2.3343,-2.3355,-2.3359,-2.3383,-2.3391,-2.3415,-2.3421,-2.3437,-2.3469,-2.3482,-2.3493,-2.3515,-2.3517,-2.352,-2.3526,-2.3539,-2.3541,-2.3543,-2.3549,-2.3552,-2.3522,-2.3522,-2.3522,0,-2.3255,-2.3273,-2.3284,-2.3315,-2.3329,-2.3348,-2.3348,-2.3368,-2.3381,-2.3389,-2.3412,-2.3424,-2.3444,-2.3468,-2.3479,-2.3477,-2.3512,-2.3504,-2.3505,-2.3506,-2.3519,-2.3521,-2.3523,-2.3496,-2.3496,-2.3495,0,0,-2.3252,-2.3271,-2.3294,-2.3316,-2.3324,-2.3342,-2.3353,-2.3361,-2.3379,-2.3386,-2.3401,-2.3418,-2.3436,-2.3448,-2.3466,-2.3491,-2.3495,-2.35,-2.3502,-2.3503,-2.3504,-2.3517,-2.352,-2.3495,-2.3495,-2.3495,0,0,-2.325,-2.3278,-2.3282,-2.3309,-2.3326,-2.335,-2.3362,-2.3366,-2.3385,-2.3384,-2.3397,-2.3402,-2.3425,-2.3436,-2.3426,-2.3464,-2.346,-2.3463,-2.3457,-2.3458,-2.346,-2.3456,-2.3427,0,0,0,0,0,-2.3257,-2.3275,-2.3278,-2.3285,-2.3323,-2.3348,-2.3353,-2.3365,-2.3362,-2.3371,-2.3384,-2.3387,-2.3433,-2.3425,-2.3431,-2.3441,-2.3488,-2.3489,-2.349,-2.3488,-2.349,-2.3491,0,0,0,0,0,0,-2.3259,-2.3268,-2.3277,-2.3302,-2.331,-2.3348,-2.3345,-2.3348,-2.3361,-2.3361,-2.3384,-2.3387,-2.3397,-2.3423,-2.3428,-2.3437,-2.3426,-2.3488,-2.3489,-2.349,-2.3489,-2.349,-2.3491,0,0,0,0,0,-2.3262,-2.3269,-2.3327,-2.3302,-2.3309,-2.3329,-2.3344,-2.3347,-2.3357,-2.3377,-2.3381,-2.3365,-2.3397,-2.3402,-2.3426,-2.3435,-2.3422,-2.3424,-2.3489,-2.349,-2.349,-2.3489,0,0,0,0,0,0,-2.3263,-2.3271,-2.3329,-2.3331,-2.3296,-2.3327,-2.3333,-2.3346,-2.3372,-2.3376,-2.3358,-2.3358,-2.3397,-2.3401,-2.3405,-2.3433,-2.3419,-2.3421,-2.3422,-2.3489,-2.349,-2.3491,0,0,0,0,0,0,-2.3268,-2.3273,-2.333,-2.3322,-2.3324,-2.3325,-2.333,-2.3352,-2.3373,-2.3352,-2.3353,-2.3358,-2.3391,-2.3401,-2.3404,-2.3437,-2.3417,-2.3419,-2.342,-2.3421,-2.349,-2.3491,0,0,0,0,0,0,-2.327,-2.3275,-2.3322,-2.3323,-2.3325,-2.3356,-2.3345,-2.3383,-2.3367,-2.3351,-2.3365,-2.3365,-2.339,-2.3394,-2.3403,-2.3435,-2.3437,-2.3417,-2.3418,-2.3419,-2.342,0,0,0,0,0,0,0,-2.3272,-2.3236,-2.3313,-2.3324,-2.3325,-2.3356,-2.3357,-2.3358,-2.3367,-2.3366,-2.3366,-2.3365,-2.3406,-2.3408,-2.341,-2.3433,0,0,-2.3417,-2.3418,0,0,0,0,0,0,0,0,-2.3235,-2.3236,-2.3313,-2.3314,-2.3314,-2.3356,-2.3357,-2.3358,-2.3367,-2.3366,-2.3366,-2.3365,-2.3407,-2.3408,-2.341,0,0,0,0,0,0,0,0,0,0,0,0,0,0,0,-2.3313,-2.3313,0,-2.3357,-2.3357,-2.3358,-2.3366,-2.3366,-2.3366,-2.3366,-2.3407,-2.3409,-2.341,0,0,0,0,0,0,0,0,0,0,0,0,0,0,0,0,0,0,0,0,0,0,0,0,0,0,0,0,0,0,0,0,0,0,0,0,0,0,0,0,0,0,0,0,0,0,0,0,0,0,0,0,0,0,0,0,0,0,0,0,0,0,0,0,0,0,0,0,0]}],[{"header":{"parameterUnit":"kt","parameterCategory":2,"dx":1,"dy":1,"la1":30.253999710083008,"la2":30.299108505249023,"lo1":-89.0895004272461,"lo2":-89.04439544677734,"nx":28,"ny":28,"refTime":"2022-10-19T21:00:00:Z","depth":0,"parameterNumber":2,"parameterNumberName":"V-component_of_WINDS"},"data":[-3.5355,-3.5409,-3.5394,-3.5449,-3.5445,-3.548,-3.5487,-3.5496,-3.5498,-3.5538,-3.5559,-3.5549,-3.5546,-3.5567,-3.5588,-3.5583,-3.5593,-3.5624,-3.5613,-3.549,-3.5472,-3.5455,-3.5442,-3.5626,-3.5626,-3.5742,-3.5743,-3.5744,-3.5268,-3.5265,-3.5289,-3.5303,-3.5323,-3.5285,-3.5293,-3.5313,-3.5345,-3.5349,-3.5367,-3.5401,-3.5426,-3.5412,-3.5433,-3.5458,-3.5441,-3.5465,-3.5463,-3.5463,-3.5332,-3.5317,-3.5478,-3.5478,-3.5478,-3.5478,-3.5478,-3.5478,-3.5106,-3.5139,-3.5138,-3.5164,-3.5166,-3.5176,-3.5204,-3.5191,-3.5214,-3.5234,-3.5211,-3.5247,-3.5248,-3.5265,-3.5267,-3.5295,-3.5266,-3.5287,-3.5292,-3.5298,-3.5307,-3.5144,-3.5297,-3.5297,-3.5296,-3.5296,-3.5296,0,-3.4983,-3.4968,-3.499,-3.5007,-3.5025,-3.5037,-3.5046,-3.5063,-3.5025,-3.5046,-3.5075,-3.5089,-3.5117,-3.5143,-3.5159,-3.5156,-3.5118,-3.5112,-3.5127,-3.5139,-3.5148,-3.5145,-3.4932,-3.5108,-3.5106,-3.5105,-3.5104,-3.5103,-3.4818,-3.4858,-3.4849,-3.4867,-3.4867,-3.4896,-3.4909,-3.4873,-3.4889,-3.4894,-3.4925,-3.4949,-3.4967,-3.5016,-3.5,-3.5021,-3.5003,-3.5072,-3.5005,-3.5016,-3.5004,-3.5003,-3.5007,-3.5086,-3.5088,-3.509,-3.5091,0,-3.4728,-3.4701,-3.4758,-3.4744,-3.4742,-3.4786,-3.4774,-3.4805,-3.4788,-3.4828,-3.4836,-3.4809,-3.4838,-3.481,-3.4837,-3.4822,-3.4894,-3.4876,-3.4894,-3.4889,-3.4949,-3.4944,-3.5146,-3.517,-3.4978,-3.498,-3.4981,0,-3.4577,-3.4631,-3.4588,-3.4622,-3.468,-3.4641,-3.47,-3.4691,-3.469,-3.4721,-3.4673,-3.4704,-3.4662,-3.4689,-3.4666,-3.472,-3.4725,-3.4716,-3.471,-3.4721,-3.4722,-3.473,-3.4721,-3.4692,-3.4691,-3.469,-3.469,0,-3.4438,-3.4477,-3.4532,-3.4537,-3.4527,-3.4554,-3.4551,-3.4549,-3.4563,-3.4576,-3.4584,-3.4603,-3.4613,-3.4628,-3.4599,-3.4555,-3.4663,-3.4597,-3.4655,-3.4656,-3.468,-3.4679,-3.4865,-3.4688,-3.4688,-3.4688,-3.4687,0,-3.4312,-3.4326,-3.4409,-3.44,-3.4412,-3.4448,-3.4463,-3.4487,-3.4488,-3.4476,-3.4486,-3.445,-3.4494,-3.443,-3.449,-3.4442,-3.4455,-3.445,-3.4454,-3.4456,-3.4386,-3.4495,-3.4674,-3.4692,-3.4459,-3.4457,-3.4455,0,-3.416,-3.4237,-3.4203,-3.4283,-3.4314,-3.4258,-3.4297,-3.4299,-3.4286,-3.431,-3.4295,-3.4324,-3.427,-3.4275,-3.4308,-3.4294,-3.4357,-3.4284,-3.4321,-3.4323,-3.4323,-3.4487,-3.4521,-3.4637,-3.443,-3.4433,-3.4435,0,-3.4039,-3.4026,-3.4043,-3.4046,-3.4042,-3.4068,-3.4113,-3.4132,-3.415,-3.4157,-3.4194,-3.4233,-3.4194,-3.4203,-3.4175,-3.4212,-3.4313,-3.4165,-3.4164,-3.4193,-3.4415,-3.4447,-3.4467,-3.4287,-3.429,-3.4292,-3.4415,0,-3.3856,-3.389,-3.3933,-3.3942,-3.3957,-3.4005,-3.3974,-3.3994,-3.3966,-3.395,-3.4004,-3.3997,-3.4017,-3.4031,-3.4004,-3.4096,-3.4076,-3.4034,-3.397,-3.4077,-3.4117,-3.4133,-3.3913,-3.3911,-3.3909,-3.3908,0,0,-3.3717,-3.3765,-3.3726,-3.3768,-3.3779,-3.3718,-3.3773,-3.3775,-3.3783,-3.3792,-3.3756,-3.381,-3.3806,-3.3874,-3.3905,-3.3913,-3.3927,-3.389,-3.4026,-3.404,-3.4052,-3.4095,-3.4112,-3.3905,-3.3904,-3.3904,-3.3903,0,-3.3644,-3.3641,-3.3694,-3.3696,-3.3696,-3.3676,-3.3689,-3.3679,-3.3671,-3.3722,-3.3672,-3.37,-3.3744,-3.3747,-3.3754,-3.3881,-3.3842,-3.3889,-3.3968,-3.401,-3.4025,-3.4039,-3.4085,-3.4102,-3.3899,-3.3899,-3.3899,0,-3.3519,-3.3511,-3.3533,-3.3553,-3.3552,-3.3586,-3.3511,-3.3549,-3.3573,-3.3505,-3.3557,-3.3549,-3.355,-3.3619,-3.3648,-3.3616,-3.3766,-3.3713,-3.3723,-3.3725,-3.3764,-3.3783,-3.38,-3.3579,-3.3578,-3.3577,0,0,-3.3459,-3.349,-3.347,-3.3535,-3.3538,-3.3509,-3.3523,-3.3496,-3.3498,-3.3499,-3.3488,-3.3492,-3.3517,-3.3534,-3.3556,-3.3635,-3.3632,-3.3675,-3.369,-3.3702,-3.3712,-3.3754,-3.3772,-3.3573,-3.3573,-3.3573,0,0,-3.3431,-3.3409,-3.338,-3.3451,-3.3455,-3.3439,-3.348,-3.3444,-3.346,-3.3451,-3.3407,-3.3406,-3.3469,-3.3463,-3.3417,-3.3532,-3.3469,-3.348,-3.3534,-3.3552,-3.3567,-3.3567,-3.3339,0,0,0,0,0,-3.3339,-3.3412,-3.3386,-3.3393,-3.3417,-3.3453,-3.3456,-3.3422,-3.3378,-3.3411,-3.3396,-3.3352,-3.3429,-3.3387,-3.3395,-3.3447,-3.3525,-3.3534,-3.3542,-3.363,-3.3649,-3.3666,0,0,0,0,0,0,-3.3341,-3.335,-3.3384,-3.3371,-3.3376,-3.345,-3.3369,-3.3361,-3.3373,-3.3364,-3.3357,-3.3352,-3.3323,-3.3381,-3.3389,-3.3439,-3.3336,-3.3528,-3.3536,-3.3542,-3.3636,-3.3653,-3.3667,0,0,0,0,0,-3.3343,-3.335,-3.3399,-3.337,-3.3374,-3.3346,-3.3366,-3.3359,-3.3367,-3.3344,-3.3338,-3.334,-3.3326,-3.3329,-3.3385,-3.3436,-3.3331,-3.3334,-3.3533,-3.3539,-3.3544,-3.3644,0,0,0,0,0,0,-3.3344,-3.3344,-3.3399,-3.3399,-3.3339,-3.3341,-3.334,-3.3357,-3.3346,-3.3341,-3.3325,-3.3318,-3.3328,-3.3331,-3.3334,-3.3437,-3.3326,-3.3329,-3.3331,-3.3537,-3.3542,-3.3546,0,0,0,0,0,0,-3.334,-3.3345,-3.3399,-3.3362,-3.3358,-3.3337,-3.3336,-3.3378,-3.3346,-3.3327,-3.3321,-3.3322,-3.3323,-3.3332,-3.3334,-3.3402,-3.3323,-3.3326,-3.3328,-3.3329,-3.3541,-3.3545,0,0,0,0,0,0,-3.3341,-3.3345,-3.3362,-3.3359,-3.3355,-3.3353,-3.3373,-3.34,-3.3315,-3.3329,-3.3307,-3.3303,-3.3326,-3.3327,-3.3335,-3.3402,-3.3402,-3.3323,-3.3325,-3.3326,-3.3327,0,0,0,0,0,0,0,-3.3342,-3.3324,-3.3398,-3.3356,-3.3352,-3.34,-3.34,-3.34,-3.3314,-3.3311,-3.3307,-3.3304,-3.3307,-3.331,-3.3313,-3.3401,0,0,-3.3323,-3.3324,0,0,0,0,0,0,0,0,-3.3322,-3.3324,-3.3398,-3.3398,-3.3398,-3.34,-3.34,-3.34,-3.3314,-3.3311,-3.3308,-3.3306,-3.3307,-3.331,-3.3313,0,0,0,0,0,0,0,0,0,0,0,0,0,0,0,-3.3398,-3.3398,0,-3.34,-3.34,-3.34,-3.3313,-3.3311,-3.3309,-3.3307,-3.3308,-3.331,-3.3312,0,0,0,0,0,0,0,0,0,0,0,0,0,0,0,0,0,0,0,0,0,0,0,0,0,0,0,0,0,0,0,0,0,0,0,0,0,0,0,0,0,0,0,0,0,0,0,0,0,0,0,0,0,0,0,0,0,0,0,0,0,0,0,0,0,0,0,0,0]}]]]